FW8701 Weather Reports


Display with metric or nautical units.
time (UTC)temp
F
wind
direction
speed
MPH
gust
MPH
rain 1hr
in
rain 24hr
in
rain mn
in
humidity
%
barometer
mb
20260502163111 55 192 0.0 1.0 0.00 0.00 0.00 86 1006.5
20260502162608 55 195 0.0 0.0 0.00 0.00 0.00 86 1006.5
20260502162106 55 203 0.0 0.0 0.00 0.00 0.00 87 1006.2
20260502161602 55 194 0.0 0.0 0.00 0.00 0.00 88 1006.2
20260502161059 55 194 0.0 1.0 0.00 0.00 0.00 88 1006.3
20260502160557 54 186 0.0 1.0 0.00 0.00 0.00 88 1006.1
20260502152010 53 187 0.0 0.0 0.00 0.00 0.00 94 1006.0
20260502151507 52 216 0.0 1.0 0.00 0.00 0.00 94 1006.0
20260502151004 52 208 0.0 0.0 0.00 0.00 0.00 93 1005.9
20260502150502 52 235 0.0 1.0 0.00 0.00 0.00 92 1006.0
20260502130341 52 209 0.0 0.0 0.00 0.00 0.00 95 1005.3
20260502123324 52 196 0.0 0.0 0.00 0.00 0.00 94 1005.0
20260502122821 52 194 0.0 1.0 0.00 0.00 0.00 94 1005.0
20260502122316 52 196 0.0 0.0 0.00 0.00 0.00 94 1004.9
20260502121815 52 198 0.0 0.0 0.00 0.00 0.00 94 1004.9
20260502121312 52 183 0.0 1.0 0.00 0.00 0.00 94 1004.9
20260502120809 52 210 0.0 0.0 0.00 0.00 0.00 94 1005.0
20260502120305 52 211 0.0 1.0 0.00 0.00 0.00 94 1005.0
20260502115803 52 178 0.0 0.0 0.00 0.00 0.00 94 1004.9
20260502115300 52 200 0.0 0.0 0.00 0.00 0.00 94 1005.0
20260502114755 52 193 0.0 0.0 0.00 0.00 0.00 94 1004.9
20260502114252 52 188 0.0 1.0 0.00 0.00 0.00 94 1004.8
20260502113750 52 225 0.0 1.0 0.00 0.00 0.00 95 1004.9
20260502113248 52 203 0.0 0.0 0.00 0.00 0.00 95 1004.8
20260502112745 52 220 2.0 2.0 0.00 0.00 0.00 94 1004.9
20260502112243 52 216 0.0 0.0 0.00 0.00 0.00 94 1004.8
20260502111740 52 255 0.0 2.0 0.00 0.00 0.00 94 1004.6
20260502111237 52 191 0.0 1.0 0.00 0.00 0.00 94 1004.6
20260502110735 52 184 0.0 0.0 0.00 0.00 0.00 94 1004.7
20260502110232 52 192 0.0 0.0 0.00 0.00 0.00 94 1004.6
20260502105731 52 183 0.0 0.0 0.00 0.00 0.00 94 1004.8
20260502105226 52 196 0.0 0.0 0.00 0.00 0.00 94 1004.8
20260502104724 52 202 0.0 0.0 0.00 0.00 0.00 94 1004.7
20260502104221 52 193 0.0 0.0 0.00 0.00 0.00 94 1005.0
20260502103719 52 164 1.0 2.0 0.00 0.00 0.00 94 1005.0
20260502103217 52 206 0.0 0.0 0.00 0.00 0.00 94 1005.0
20260502102713 52 190 0.0 1.0 0.00 0.00 0.00 94 1004.9
20260502102210 53 83 0.0 1.0 0.00 0.00 0.00 94 1004.9
20260502101708 52 203 0.0 0.0 0.00 0.00 0.00 94 1005.0
20260502101206 53 184 0.0 0.0 0.00 0.00 0.00 95 1005.0
20260502100704 53 205 0.0 0.0 0.00 0.00 0.00 94 1005.1
20260502100202 53 201 0.0 0.0 0.00 0.00 0.00 94 1005.3
20260502091136 53 190 0.0 0.0 0.00 0.00 0.00 94 1005.3
20260502090633 53 221 0.0 1.0 0.00 0.00 0.00 94 1005.6
20260502090130 53 189 0.0 0.0 0.00 0.00 0.00 94 1005.4
20260502071521 54 173 0.0 0.0 0.00 0.00 0.00 93 1005.8
20260502071020 53 249 0.0 0.0 0.00 0.00 0.00 94 1005.6
20260502070517 53 213 0.0 1.0 0.00 0.00 0.00 94 1005.7
20260502070016 53 206 0.0 0.0 0.00 0.00 0.00 94 1005.9
20260502065514 53 210 0.0 0.0 0.00 0.00 0.00 94 1005.8
20260502065011 53 205 0.0 0.0 0.00 0.00 0.00 94 1005.7
20260502064509 54 192 0.0 0.0 0.00 0.00 0.00 93 1005.4
20260502064006 53 187 0.0 0.0 0.00 0.00 0.00 94 1005.6
20260502063504 53 200 0.0 0.0 0.00 0.00 0.00 96 1005.7
20260502063001 53 200 0.0 0.0 0.00 0.00 0.00 96 1005.8
20260502062458 53 200 0.0 0.0 0.00 0.00 0.00 96 1005.7
20260502061957 52 210 0.0 0.0 0.00 0.00 0.00 97 1005.6
20260502061454 52 210 0.0 0.0 0.00 0.00 0.00 97 1005.9
20260502060950 52 211 0.0 0.0 0.00 0.00 0.00 97 1005.7
20260502060446 52 210 0.0 0.0 0.00 0.00 0.00 96 1005.8
20260502055943 52 210 0.0 0.0 0.00 0.00 0.00 96 1005.9
20260502055440 52 211 0.0 0.0 0.00 0.00 0.00 96 1006.2
20260502054935 52 211 0.0 0.0 0.00 0.00 0.00 96 1006.0
20260502054432 52 200 0.0 0.0 0.00 0.00 0.00 96 1005.9
20260502053924 52 200 0.0 0.0 0.00 0.00 0.00 96 1006.1
20260502053421 52 207 0.0 0.0 0.00 0.00 0.00 96 1006.0
20260502052918 52 207 0.0 0.0 0.00 0.00 0.00 96 1006.0
20260502052416 52 207 0.0 0.0 0.00 0.00 0.00 95 1006.0
20260502051914 52 207 0.0 0.0 0.00 0.00 0.00 95 1005.9
20260502051412 53 207 0.0 0.0 0.00 0.00 0.00 95 1006.1
20260502050909 53 198 0.0 0.0 0.00 0.00 0.00 95 1005.9
20260502050405 53 198 0.0 0.0 0.00 0.00 0.00 94 1005.7
20260502045902 53 198 0.0 0.0 0.00 0.00 0.00 94 1005.9
20260502045359 53 198 0.0 0.0 0.00 0.00 0.00 94 1005.7
20260502044856 53 198 0.0 0.0 0.00 0.00 0.00 93 1005.7
20260502044352 53 198 0.0 0.0 0.00 0.00 0.00 93 1005.7
20260502043849 54 198 0.0 0.0 0.00 0.00 0.00 92 1005.5
20260502043347 54 198 0.0 0.0 0.00 0.00 0.00 92 1005.7
20260502042846 54 198 0.0 0.0 0.00 0.00 0.00 92 1005.5
20260502042343 54 198 0.0 0.0 0.00 0.00 0.00 91 1005.3
20260502041841 55 198 0.0 0.0 0.00 0.00 0.00 90 1005.1
20260502041338 55 198 0.0 0.0 0.00 0.00 0.00 90 1005.4
20260502040835 55 198 0.0 0.0 0.00 0.00 0.00 89 1005.1
20260502040332 56 198 0.0 0.0 0.00 0.00 0.00 88 1005.0
20260502035828 56 198 0.0 0.0 0.00 0.00 0.00 88 1005.2
20260502035325 56 197 0.0 0.0 0.00 0.00 0.00 87 1005.2
20260502034822 56 198 0.0 0.0 0.00 0.00 0.00 87 1005.1
20260502034320 57 197 0.0 0.0 0.00 0.00 0.00 86 1004.9
20260502033819 57 197 0.0 0.0 0.00 0.00 0.00 85 1004.8
20260502033316 58 197 0.0 0.0 0.00 0.00 0.00 84 1004.9
20260502032812 58 197 0.0 0.0 0.00 0.00 0.00 83 1004.7
20260502032308 59 198 0.0 0.0 0.00 0.00 0.00 82 1004.8
20260502031806 59 177 0.0 1.0 0.00 0.00 0.00 81 1004.6
20260502031304 60 189 0.0 0.0 0.00 0.00 0.00 80 1004.7
20260502030803 60 185 0.0 0.0 0.00 0.00 0.00 80 1004.6
20260502030300 61 192 0.0 0.0 0.00 0.00 0.00 79 1004.7
20260502025757 61 203 0.0 0.0 0.00 0.00 0.00 78 1004.5
20260502025255 62 197 0.0 0.0 0.00 0.00 0.00 77 1004.6
20260502024753 62 191 0.0 0.0 0.00 0.00 0.00 76 1004.4
20260502024250 63 203 0.0 0.0 0.00 0.00 0.00 76 1004.4
20260502023748 64 196 0.0 0.0 0.00 0.00 0.00 75 1004.3
20260502023245 64 207 0.0 1.0 0.00 0.00 0.00 72 1004.2
20260502022743 65 206 1.0 3.0 0.00 0.00 0.00 72 1004.2
20260502022239 66 185 0.0 1.0 0.00 0.00 0.00 73 1004.1
20260502021736 66 200 0.0 1.0 0.00 0.00 0.00 70 1003.9
20260502021234 67 205 0.0 0.0 0.00 0.00 0.00 70 1003.8
20260502020731 68 204 1.0 2.0 0.00 0.00 0.00 67 1004.1
20260502020228 68 348 1.0 1.0 0.00 0.00 0.00 67 1004.1
20260502015726 69 283 1.0 2.0 0.00 0.00 0.00 67 1003.9
20260502015222 69 101 1.0 2.0 0.00 0.00 0.00 67 1003.7
20260502014720 70 194 0.0 1.0 0.00 0.00 0.00 63 1003.8
20260502014216 70 180 0.0 2.0 0.00 0.00 0.00 63 1003.7
20260502013713 71 273 1.0 1.0 0.00 0.00 0.00 62 1003.7
20260502013208 72 203 0.0 1.0 0.00 0.00 0.00 60 1003.7
20260502012705 73 285 2.0 2.0 0.00 0.00 0.00 58 1003.7
20260502012203 73 260 0.0 2.0 0.00 0.00 0.00 57 1003.8
20260502011659 75 244 2.0 3.0 0.00 0.00 0.00 56 1003.7
20260502011155 74 17 1.0 2.0 0.00 0.00 0.00 57 1003.7
20260502010653 74 258 2.0 3.0 0.00 0.00 0.00 56 1003.6
20260502010149 75 256 0.0 1.0 0.00 0.00 0.00 57 1003.7
20260502005647 76 219 1.0 1.0 0.00 0.00 0.00 54 1003.5
20260502005144 76 132 0.0 2.0 0.00 0.00 0.00 55 1003.5
20260502004640 76 278 0.0 3.0 0.00 0.00 0.00 54 1003.6
20260502004137 76 11 2.0 5.0 0.00 0.00 0.00 55 1003.5
20260502003635 77 233 1.0 2.0 0.00 0.00 0.00 53 1003.6
20260502003132 77 224 0.0 6.0 0.00 0.00 0.00 54 1003.4
20260502002628 77 80 1.0 2.0 0.00 0.00 0.00 53 1003.4
20260502002126 77 238 2.0 2.0 0.00 0.00 0.00 53 1003.6
20260502001623 78 235 0.0 3.0 0.00 0.00 0.00 53 1003.7
20260502001120 78 145 2.0 3.0 0.00 0.00 0.00 53 1003.6
20260502000618 77 206 0.0 1.0 0.00 0.00 0.00 54 1003.8
20260502000115 76 7 5.0 6.0 0.00 0.00 0.00 55 1003.4
20260501235611 78 259 3.0 3.0 0.00 0.00 0.00 52 1003.4
20260501235107 78 252 2.0 2.0 0.00 0.00 0.00 52 1003.6
20260501234603 78 177 1.0 2.0 0.00 0.00 0.00 54 1003.7
20260501234101 78 190 3.0 6.0 0.00 0.00 0.00 53 1003.7
20260501233559 79 113 3.0 5.0 0.00 0.00 0.00 51 1003.8
20260501233055 79 131 1.0 3.0 0.00 0.00 0.00 50 1003.6
20260501232551 79 201 1.0 5.0 0.00 0.00 0.00 51 1003.9
20260501232049 79 160 2.0 5.0 0.00 0.00 0.00 50 1004.0
20260501231547 80 233 2.0 3.0 0.00 0.00 0.00 51 1003.7
20260501231045 81 204 2.0 2.0 0.00 0.00 0.00 49 1003.8
20260501230543 79 215 0.0 5.0 0.00 0.00 0.00 50 1003.7
20260501230041 80 197 3.0 3.0 0.00 0.00 0.00 51 1004.0
20260501225538 80 194 3.0 5.0 0.00 0.00 0.00 48 1004.0
20260501225034 81 209 0.0 1.0 0.00 0.00 0.00 50 1004.2
20260501224532 80 202 1.0 2.0 0.00 0.00 0.00 53 1004.3
20260501224029 79 214 2.0 7.0 0.00 0.00 0.00 50 1004.3
20260501223525 80 217 1.0 3.0 0.00 0.00 0.00 53 1004.5
20260501223021 81 217 2.0 5.0 0.00 0.00 0.00 49 1004.4
20260501222518 82 155 0.0 1.0 0.00 0.00 0.00 51 1004.7
20260501222015 80 209 0.0 5.0 0.00 0.00 0.00 52 1004.6
20260501221511 80 225 0.0 2.0 0.00 0.00 0.00 49 1004.6
20260501221009 80 14 1.0 5.0 0.00 0.00 0.00 47 1005.0
20260501220507 80 218 0.0 2.0 0.00 0.00 0.00 50 1004.9
20260501220003 80 193 0.0 1.0 0.00 0.00 0.00 50 1005.0
20260501215459 80 179 1.0 3.0 0.00 0.00 0.00 47 1004.9
20260501214955 80 145 1.0 3.0 0.00 0.00 0.00 49 1004.9
20260501214450 79 190 0.0 1.0 0.00 0.00 0.00 49 1005.0
20260501213946 79 146 2.0 6.0 0.00 0.00 0.00 49 1005.0
20260501213443 80 39 2.0 3.0 0.00 0.00 0.00 48 1005.0
20260501212938 79 217 1.0 2.0 0.00 0.00 0.00 49 1005.3
20260501212436 80 95 0.0 6.0 0.00 0.00 0.00 50 1005.1
20260501211932 80 214 1.0 3.0 0.00 0.00 0.00 49 1005.3
20260501211430 80 222 1.0 2.0 0.00 0.00 0.00 47 1005.3
20260501210927 80 209 1.0 2.0 0.00 0.00 0.00 48 1005.3
20260501210424 80 182 1.0 1.0 0.00 0.00 0.00 47 1005.4
20260501205920 80 349 2.0 2.0 0.00 0.00 0.00 47 1005.3
20260501205417 79 225 0.0 2.0 0.00 0.00 0.00 49 1005.2
20260501204915 78 178 1.0 2.0 0.00 0.00 0.00 49 1005.5
20260501204410 78 236 0.0 1.0 0.00 0.00 0.00 49 1005.4
20260501203906 78 17 3.0 5.0 0.00 0.00 0.00 50 1005.3
20260501203404 78 199 1.0 3.0 0.00 0.00 0.00 50 1005.6
20260501202901 78 217 0.0 2.0 0.00 0.00 0.00 52 1005.5
20260501202358 78 293 0.0 3.0 0.00 0.00 0.00 49 1005.8
20260501201855 77 98 2.0 3.0 0.00 0.00 0.00 50 1005.8
20260501201351 79 312 3.0 5.0 0.00 0.00 0.00 50 1005.7
20260501200848 78 170 0.0 2.0 0.00 0.00 0.00 50 1005.7
20260501200345 76 217 1.0 1.0 0.00 0.00 0.00 50 1005.7
20260501195843 76 209 0.0 1.0 0.00 0.00 0.00 53 1005.7
20260501195338 76 164 1.0 2.0 0.00 0.00 0.00 50 1005.8
20260501194835 75 113 1.0 2.0 0.00 0.00 0.00 53 1005.9
20260501194331 76 210 0.0 3.0 0.00 0.00 0.00 50 1006.0
20260501193827 76 164 0.0 6.0 0.00 0.00 0.00 51 1006.0
20260501193326 76 208 0.0 5.0 0.00 0.00 0.00 54 1006.1
20260501192823 75 78 1.0 2.0 0.00 0.00 0.00 53 1006.1
20260501192320 74 231 1.0 5.0 0.00 0.00 0.00 54 1006.2
20260501191817 74 184 1.0 1.0 0.00 0.00 0.00 53 1006.1
20260501191314 74 119 1.0 2.0 0.00 0.00 0.00 52 1006.2
20260501190810 73 335 2.0 3.0 0.00 0.00 0.00 52 1006.2
20260501190306 73 187 2.0 2.0 0.00 0.00 0.00 52 1006.5
20260501185757 73 259 3.0 3.0 0.00 0.00 0.00 51 1006.6
20260501185253 73 256 1.0 3.0 0.00 0.00 0.00 51 1006.5
20260501184749 73 137 1.0 2.0 0.00 0.00 0.00 53 1006.6
20260501184244 72 193 1.0 1.0 0.00 0.00 0.00 52 1006.6
20260501183740 72 193 1.0 1.0 0.00 0.00 0.00 54 1006.9
20260501183238 71 230 0.0 2.0 0.00 0.00 0.00 54 1006.6
20260501182733 71 163 1.0 2.0 0.00 0.00 0.00 57 1006.9
20260501182231 71 215 1.0 1.0 0.00 0.00 0.00 56 1007.0
20260501181727 71 193 0.0 1.0 0.00 0.00 0.00 56 1006.9
20260501181225 70 190 0.0 1.0 0.00 0.00 0.00 56 1007.1
20260501180723 69 207 1.0 2.0 0.00 0.00 0.00 56 1007.3
20260501180218 69 155 1.0 1.0 0.00 0.00 0.00 57 1007.1
20260501175715 70 188 1.0 1.0 0.00 0.00 0.00 56 1007.2
20260501175213 69 173 0.0 1.0 0.00 0.00 0.00 58 1007.2
20260501174709 68 195 1.0 2.0 0.00 0.00 0.00 57 1007.3
20260501174206 68 168 1.0 1.0 0.00 0.00 0.00 59 1007.3
20260501173704 67 212 0.0 2.0 0.00 0.00 0.00 61 1007.3
20260501173201 67 164 1.0 2.0 0.00 0.00 0.00 59 1007.3
20260501172657 67 202 0.0 1.0 0.00 0.00 0.00 61 1007.5
20260501172152 67 189 0.0 1.0 0.00 0.00 0.00 60 1007.4
20260501171648 65 194 0.0 1.0 0.00 0.00 0.00 64 1007.2
20260501171145 64 189 0.0 1.0 0.00 0.00 0.00 64 1007.5
20260501170642 66 184 1.0 1.0 0.00 0.00 0.00 68 1007.4
20260501170138 65 190 0.0 1.0 0.00 0.00 0.00 66 1007.5
20260501165631 63 168 0.0 1.0 0.00 0.00 0.00 66 1007.5
20260501165128 62 152 0.0 2.0 0.00 0.00 0.00 70 1007.4
20260501164626 63 175 0.0 1.0 0.00 0.00 0.00 67 1007.4
20260501164122 63 198 0.0 2.0 0.00 0.00 0.00 69 1007.6
20260501163618 61 199 0.0 1.0 0.00 0.00 0.00 72 1007.5